This is the latest recevied weather packets stored in our database for station/object AH6GR. If no packets are shown the sender has not sent any weather packets the latest 10 day(s).
| Time | Temp. | Humidity | Pressure | Rain* | Wind** | Luminosity | Snow |
|---|---|---|---|---|---|---|---|
| 1778116235 | 23.89° C | 84% | 1015.1 hPa | 0 mm | - | - | - |
| 1778115662 | 23.89° C | 84% | 1014.4 hPa | 0 mm | - | - | - |
| 1778115635 | 23.89° C | 83% | 1015.2 hPa | 0 mm | - | - | - |
| 1778115035 | 24.44° C | 83% | 1015.2 hPa | 0 mm | - | - | - |
| 1778114731 | 24.44° C | 82% | 1014.4 hPa | 0 mm | - | - | - |
| 1778114435 | 25° C | 82% | 1015.4 hPa | 0 mm | - | - | - |
| 1778113835 | 25° C | 83% | 1015.5 hPa | 0 mm | - | - | - |
| 1778113805 | 24.44° C | 83% | 1014.5 hPa | 0 mm | - | - | - |
| 1778113235 | 25° C | 79% | 1015.6 hPa | 0 mm | - | - | - |
| 1778112962 | 25° C | 80% | 1014.6 hPa | 0 mm | - | - | - |
| 1778112635 | 25° C | 79% | 1015.6 hPa | 0 mm | - | - | - |
| 1778112035 | 25° C | 81% | 1015.7 hPa | 0 mm | - | - | - |
| 1778112026 | 24.44° C | 81% | 1014.8 hPa | 0 mm | - | - | - |
| 1778111435 | 25° C | 81% | 1015.8 hPa | 0 mm | - | - | - |
| 1778111188 | 24.44° C | 79% | 1014.8 hPa | 0 mm | - | - | - |
| 1778110835 | 25° C | 81% | 1015.8 hPa | 0 mm | - | - | - |
| 1778110248 | 25° C | 80% | 1015 hPa | 0 mm | - | - | - |
| 1778110235 | 25° C | 79% | 1016 hPa | 0 mm | - | - | - |
| 1778109635 | 25.56° C | 76% | 1016 hPa | 0 mm | - | - | - |
| 1778109303 | 25.56° C | 77% | 1015 hPa | 0 mm | - | - | - |
| 1778109035 | 25.56° C | 77% | 1016 hPa | 0 mm | - | - | - |
| 1778108447 | 25° C | 79% | 1015 hPa | 0 mm | - | - | - |
| 1778108434 | 25.56° C | 79% | 1016.1 hPa | 0 mm | - | - | - |
| 1778107835 | 25.56° C | 79% | 1016.2 hPa | 0 mm | - | - | - |
| 1778107510 | 25° C | 79% | 1015.2 hPa | 0 mm | - | - | - |
* Rain latest hour (hover to see other rain measurements)
** Current wind speed in m/s (hover to see current wind gust speed)